This is the latest recevied weather packets stored in our database for station/object K0WOI. If no packets are shown the sender has not sent any weather packets the latest 10 day(s).
| Time | Temp. | Humidity | Pressure | Rain* | Wind** | Luminosity | Snow |
|---|---|---|---|---|---|---|---|
| 1777882033 | 9.44° C | 74% | 1003.5 hPa | 0 mm | - | 0 W/m² | - |
| 1777881729 | 8.89° C | 77% | 1003.7 hPa | 0 mm | - | 0 W/m² | - |
| 1777881426 | 8.89° C | 81% | 1003.6 hPa | 0 mm | - | 0 W/m² | - |
| 1777881124 | 8.33° C | 81% | 1003.6 hPa | 0 mm | - | 0 W/m² | - |
| 1777880822 | 9.44° C | 79% | 1003.6 hPa | 0 mm | - | 0 W/m² | - |
| 1777880519 | 9.44° C | 81% | 1003.4 hPa | 0 mm | - | 0 W/m² | - |
| 1777880217 | 9.44° C | 78% | 1003.8 hPa | 0 mm | - | 0 W/m² | - |
| 1777879916 | 9.44° C | 75% | 1004 hPa | 0 mm | - | 0 W/m² | - |
| 1777879613 | 9.44° C | 77% | 1004.1 hPa | 0 mm | - | 0 W/m² | - |
| 1777879310 | 9.44° C | 78% | 1004.2 hPa | 0 mm | - | 0 W/m² | - |
| 1777879007 | 9.44° C | 78% | 1004.2 hPa | 0 mm | - | 0 W/m² | - |
| 1777878704 | 9.44° C | 76% | 1004.5 hPa | 0 mm | - | 0 W/m² | - |
| 1777878401 | 9.44° C | 80% | 1004.7 hPa | 0 mm | - | 0 W/m² | - |
| 1777878097 | 9.44° C | 80% | 1004.7 hPa | 0 mm | - | 0 W/m² | - |
| 1777877793 | 10° C | 76% | 1004.5 hPa | 0 mm | - | 0 W/m² | - |
| 1777877491 | 10.56° C | 74% | 1004.6 hPa | 0 mm | - | 0 W/m² | - |
| 1777877187 | 10.56° C | 72% | 1004.7 hPa | 0 mm | - | 0 W/m² | - |
| 1777876885 | 10.56° C | 68% | 1004.8 hPa | 0 mm | - | 0 W/m² | - |
| 1777876582 | 10.56° C | 68% | 1005 hPa | 0 mm | - | 0 W/m² | - |
| 1777876280 | 10.56° C | 68% | 1005 hPa | 0 mm | - | 0 W/m² | - |
| 1777875975 | 10.56° C | 70% | 1005.3 hPa | 0 mm | - | 0 W/m² | - |
| 1777875671 | 10° C | 71% | 1005.4 hPa | 0 mm | - | 0 W/m² | - |
| 1777875369 | 10° C | 73% | 1005.4 hPa | 0 mm | - | 0 W/m² | - |
| 1777875065 | 10° C | 75% | 1005.2 hPa | 0 mm | - | 0 W/m² | - |
| 1777874762 | 10° C | 73% | 1005.4 hPa | 0 mm | - | 0 W/m² | - |
* Rain latest hour (hover to see other rain measurements)
** Current wind speed in m/s (hover to see current wind gust speed)